West Palm Beach, FL

8:35 PM EDT on August 18, 2019 (GMT -0400)
Palm Beach International

Weather History for KPBI - June, 2019

Change the Weather History Date:

Monday, June 3, 2019

  Actual Average Record
Temperature  
Mean Temperature 86 °F 81 °F  
Max Temperature 93 °F 88 °F 95 °F (1985)
Min Temperature 78 °F 74 °F 62 °F (1965)
Degree Days  
Heating Degree Days 0 0  
Month to date heating degree days 0 0  
Since 1 June heating degree days 0 0  
Since 1 July heating degree days 144 233  
Cooling Degree Days 21 16  
Month to date cooling degree days 59 47  
Year to date cooling degree days 1460 1156  
Since 1 June cooling degree days 59 47  
Growing Degree Days 36 (Base 50)    
Moisture  
Dew Point 74 °F    
Average Humidity 71    
Maximum Humidity 85    
Minimum Humidity 56    
Precipitation  
Precipitation 0.00 in 0.26 in 5.97 in (1940)
Month to date precipitation 1.41 0.78  
Year to date precipitation 22.42 19.49  
Snow  
Snow 0.00 in - - ()
Month to date snowfall 0.0  
Since 1 June snowfall 0.0  
Since 1 July snowfall 0.0  
Snow Depth 0.00 in    
Sea Level Pressure  
Sea Level Pressure 29.97 in    
Wind  
Wind Speed 9 mph (SSW)    
Max Wind Speed 18 mph    
Max Gust Speed 23 mph    
Visibility 10 miles    
Events      
T = Trace of Precipitation, MM = Missing Value Source: NWS Daily Summary

Daily Weather History Graph

Daily Weather History Graph

Search for Another Location

Airport or City:

Astronomy

Jun. 03, 2019 Rise Set
Actual Time 6:26 AM EDT 8:10 PM EDT
Civil Twilight 6:00 AM EDT 8:36 PM EDT
Nautical Twilight 5:29 AM EDT 9:07 PM EDT
Astronomical Twilight 4:56 AM EDT 9:40 PM EDT
Moon 6:41 AM EDT (6/3) 8:36 PM EDT (6/3)
Length of Visible Light 14h 35m
Length of Day
13h 43m
New Moon, 0% of the Moon is Illuminated
Jun 3
New Moon
Jun 10
First Quarter
Jun 17
Full
Jun 25
Last Quarter
Jul 2
New

Hourly Weather History & Observations

Time (EDT) Temp. Heat Index Dew Point Humidity Pressure Visibility Wind Dir Wind Speed Gust Speed Precip Events Conditions
12:53 AM 82.0 °F 87.9 °F 73.9 °F 76% 29.96 in 10.0 mi SSE 8.1 mph - N/A   Partly Cloudy
1:53 AM 82.0 °F 87.9 °F 73.9 °F 76% 29.94 in 10.0 mi South 8.1 mph - N/A   Partly Cloudy
2:53 AM 81.0 °F 86.7 °F 75.0 °F 82% 29.93 in 10.0 mi South 5.8 mph - N/A   Clear
3:53 AM 81.0 °F 86.7 °F 75.0 °F 82% 29.92 in 10.0 mi South 5.8 mph - N/A   Partly Cloudy
4:53 AM 80.1 °F 85.1 °F 75.0 °F 85% 29.92 in 10.0 mi SSW 5.8 mph - N/A   Clear
5:53 AM 80.1 °F 85.1 °F 75.0 °F 85% 29.93 in 10.0 mi WSW 3.5 mph - N/A   Partly Cloudy
6:53 AM 80.1 °F 85.1 °F 75.0 °F 85% 29.96 in 10.0 mi SW 4.6 mph - N/A   Scattered Clouds
7:53 AM 81.0 °F 86.2 °F 73.9 °F 79% 29.98 in 10.0 mi WSW 10.4 mph - N/A   Scattered Clouds
8:53 AM 82.9 °F 89.4 °F 73.9 °F 74% 29.99 in 10.0 mi WSW 9.2 mph - N/A   Scattered Clouds
9:53 AM 86.0 °F 93.0 °F 73.0 °F 65% 30.00 in 10.0 mi WSW 9.2 mph - N/A   Scattered Clouds
10:53 AM 87.1 °F 92.8 °F 71.1 °F 59% 30.01 in 10.0 mi WSW 10.4 mph - N/A   Scattered Clouds
11:53 AM 88.0 °F 95.6 °F 73.0 °F 61% 30.01 in 10.0 mi West 8.1 mph - N/A   Scattered Clouds
12:53 PM 89.1 °F 96.0 °F 72.0 °F 57% 29.99 in 10.0 mi WNW 8.1 mph - N/A   Scattered Clouds
1:53 PM 90.0 °F 96.4 °F 71.1 °F 54% 29.98 in 10.0 mi West 8.1 mph - N/A   Scattered Clouds
2:53 PM 89.1 °F 98.0 °F 73.9 °F 61% 29.97 in 10.0 mi East 11.5 mph - N/A   Mostly Cloudy
3:53 PM 91.0 °F 101.6 °F 75.0 °F 59% 29.96 in 10.0 mi ESE 13.8 mph - N/A   Mostly Cloudy
4:53 PM 89.1 °F 98.0 °F 73.9 °F 61% 29.95 in 10.0 mi ESE 12.7 mph - N/A   Mostly Cloudy
5:53 PM 88.0 °F 96.5 °F 73.9 °F 63% 29.95 in 10.0 mi ESE 12.7 mph - N/A   Mostly Cloudy
6:53 PM 87.1 °F 96.3 °F 75.0 °F 67% 29.95 in 10.0 mi SE 15.0 mph - N/A   Mostly Cloudy
7:53 PM 84.0 °F 91.9 °F 75.0 °F 74% 29.95 in 10.0 mi SSE 13.8 mph - N/A   Mostly Cloudy
8:53 PM 84.9 °F 92.1 °F 73.9 °F 69% 29.97 in 10.0 mi SSE 13.8 mph - N/A   Mostly Cloudy
9:53 PM 84.0 °F 91.2 °F 73.9 °F 72% 29.98 in 10.0 mi South 12.7 mph - N/A   Mostly Cloudy
10:53 PM 84.0 °F 91.2 °F 73.9 °F 72% 30.03 in 10.0 mi South 9.2 mph - N/A   Mostly Cloudy
11:53 PM 84.0 °F 91.9 °F 75.0 °F 74% 30.03 in 10.0 mi South 8.1 mph - N/A   Mostly Cloudy